TimeEST,TemperatureF,Dew PointF,Humidity,Sea Level PressureIn,VisibilityMPH,Wind Direction,Wind SpeedMPH,Gust SpeedMPH,PrecipitationIn,Events,Conditions,WindDirDegrees,DateUTC
12:15 AM,32.0,26.6,80,30.23,10.0,NNE,16.1,20.7,N/A,,Overcast,20,2014-03-04 05:15:00
12:35 AM,32.0,26.6,80,30.23,10.0,NE,12.7,-,N/A,,Overcast,40,2014-03-04 05:35:00
12:55 AM,32.0,23.0,69,30.22,10.0,NNE,15.0,27.6,N/A,,Overcast,30,2014-03-04 05:55:00
1:15 AM,32.0,23.0,69,30.24,10.0,NE,11.5,15.0,N/A,,Overcast,40,2014-03-04 06:15:00
1:35 AM,32.0,23.0,69,30.24,10.0,NNE,13.8,-,N/A,,Mostly Cloudy,30,2014-03-04 06:35:00
1:55 AM,32.0,23.0,69,30.22,10.0,NNE,13.8,20.7,N/A,,Scattered Clouds,30,2014-03-04 06:55:00
2:15 AM,30.2,21.2,69,30.23,10.0,NE,20.7,28.8,N/A,,Clear,40,2014-03-04 07:15:00
2:35 AM,30.2,19.4,64,30.23,10.0,NE,13.8,19.6,N/A,,Clear,40,2014-03-04 07:35:00
2:55 AM,30.2,19.4,64,30.23,10.0,NE,8.1,11.5,N/A,,Clear,40,2014-03-04 07:55:00
3:15 AM,28.4,19.4,69,30.24,10.0,NNE,10.4,-,N/A,,Clear,30,2014-03-04 08:15:00
3:35 AM,28.4,17.6,64,30.25,10.0,NE,10.4,-,N/A,,Clear,40,2014-03-04 08:35:00
3:55 AM,28.4,17.6,64,30.24,10.0,NE,10.4,16.1,N/A,,Clear,40,2014-03-04 08:55:00
4:15 AM,28.4,17.6,64,30.25,10.0,NE,9.2,16.1,N/A,,Clear,40,2014-03-04 09:15:00
4:35 AM,26.6,19.4,74,30.27,10.0,NE,10.4,-,N/A,,Clear,40,2014-03-04 09:35:00
4:55 AM,28.4,19.4,69,30.27,10.0,NE,9.2,-,N/A,,Clear,40,2014-03-04 09:55:00
5:15 AM,26.6,19.4,74,30.26,10.0,NE,11.5,-,N/A,,Clear,50,2014-03-04 10:15:00
5:35 AM,26.6,15.8,64,30.24,10.0,NE,12.7,19.6,N/A,,Clear,40,2014-03-04 10:35:00
5:55 AM,26.6,14.0,59,30.27,10.0,NE,16.1,21.9,N/A,,Clear,40,2014-03-04 10:55:00
6:15 AM,26.6,14.0,59,30.29,10.0,NNE,12.7,18.4,N/A,,Clear,30,2014-03-04 11:15:00
6:35 AM,26.6,14.0,59,30.30,10.0,NE,12.7,-,N/A,,Clear,40,2014-03-04 11:35:00
6:55 AM,26.6,14.0,59,30.30,10.0,NE,11.5,-,N/A,,Clear,40,2014-03-04 11:55:00
7:15 AM,26.6,14.0,59,30.31,10.0,NE,11.5,16.1,N/A,,Clear,40,2014-03-04 12:15:00
7:35 AM,26.6,14.0,59,30.30,10.0,NNE,17.3,23.0,N/A,,Clear,30,2014-03-04 12:35:00
7:55 AM,26.6,12.2,55,30.32,10.0,NNE,16.1,23.0,N/A,,Clear,30,2014-03-04 12:55:00
8:15 AM,28.4,12.2,51,30.32,10.0,NNE,13.8,23.0,N/A,,Clear,30,2014-03-04 13:15:00
8:35 AM,28.4,12.2,51,30.32,10.0,NE,17.3,23.0,N/A,,Mostly Cloudy,40,2014-03-04 13:35:00
8:55 AM,30.2,12.2,47,30.31,10.0,NNE,16.1,-,N/A,,Overcast,30,2014-03-04 13:55:00
9:15 AM,30.2,12.2,47,30.33,10.0,NNE,13.8,-,N/A,,Overcast,20,2014-03-04 14:15:00
9:35 AM,30.2,12.2,47,30.33,10.0,NE,12.7,17.3,N/A,,Overcast,50,2014-03-04 14:35:00
9:55 AM,32.0,12.2,44,30.32,10.0,NE,10.4,17.3,N/A,,Overcast,40,2014-03-04 14:55:00
10:15 AM,32.0,12.2,44,30.32,10.0,NE,10.4,18.4,N/A,,Overcast,40,2014-03-04 15:15:00
10:35 AM,32.0,12.2,44,30.31,10.0,NE,9.2,16.1,N/A,,Overcast,40,2014-03-04 15:35:00
10:55 AM,32.0,14.0,48,30.29,10.0,NNE,10.4,18.4,N/A,,Overcast,30,2014-03-04 15:55:00
11:15 AM,33.8,14.0,44,30.30,10.0,NNE,8.1,19.6,N/A,,Overcast,30,2014-03-04 16:15:00
11:35 AM,33.8,14.0,44,30.29,10.0,NNE,15.0,18.4,N/A,,Overcast,30,2014-03-04 16:35:00
11:55 AM,35.6,14.0,41,30.29,10.0,NNE,8.1,17.3,N/A,,Overcast,30,2014-03-04 16:55:00
12:15 PM,35.6,14.0,41,30.27,10.0,NNE,6.9,16.1,N/A,,Overcast,20,2014-03-04 17:15:00
12:35 PM,35.6,14.0,41,30.26,10.0,NNE,9.2,-,N/A,,Overcast,20,2014-03-04 17:35:00
12:55 PM,37.4,14.0,38,30.24,10.0,NE,13.8,-,N/A,,Overcast,40,2014-03-04 17:55:00
1:15 PM,37.4,14.0,38,30.23,10.0,NNE,10.4,16.1,N/A,,Overcast,30,2014-03-04 18:15:00
1:35 PM,37.4,14.0,38,30.23,10.0,North,5.8,-,N/A,,Overcast,360,2014-03-04 18:35:00
1:55 PM,37.4,15.8,41,30.22,10.0,NNE,9.2,-,N/A,,Overcast,20,2014-03-04 18:55:00
2:15 PM,39.2,15.8,39,30.21,10.0,East,4.6,-,N/A,,Overcast,80,2014-03-04 19:15:00
2:35 PM,39.2,15.8,39,30.20,10.0,NE,8.1,-,N/A,,Overcast,50,2014-03-04 19:35:00
2:55 PM,39.2,15.8,39,30.21,10.0,NE,4.6,-,N/A,,Overcast,40,2014-03-04 19:55:00
3:15 PM,39.2,15.8,39,30.20,10.0,NNE,5.8,-,N/A,,Overcast,30,2014-03-04 20:15:00
3:35 PM,39.2,17.6,42,30.19,10.0,NNE,6.9,-,N/A,,Overcast,20,2014-03-04 20:35:00
3:55 PM,41.0,17.6,39,30.19,10.0,NNE,6.9,-,N/A,,Overcast,30,2014-03-04 20:55:00
4:15 PM,41.0,17.6,39,30.19,10.0,NNE,6.9,-,N/A,,Overcast,30,2014-03-04 21:15:00
4:35 PM,41.0,17.6,39,30.19,10.0,East,4.6,-,N/A,,Overcast,80,2014-03-04 21:35:00
4:55 PM,41.0,17.6,39,30.19,10.0,Calm,Calm,-,N/A,,Overcast,0,2014-03-04 21:55:00
5:15 PM,41.0,17.6,39,30.20,10.0,ENE,3.5,-,N/A,,Overcast,60,2014-03-04 22:15:00
5:35 PM,41.0,17.6,39,30.20,10.0,East,3.5,-,N/A,,Overcast,100,2014-03-04 22:35:00
5:55 PM,41.0,17.6,39,30.22,10.0,Calm,Calm,-,N/A,,Overcast,0,2014-03-04 22:55:00
6:15 PM,39.2,17.6,42,30.22,10.0,Calm,Calm,-,N/A,,Overcast,0,2014-03-04 23:15:00
6:35 PM,39.2,19.4,45,30.22,10.0,Calm,Calm,-,N/A,,Overcast,0,2014-03-04 23:35:00
6:55 PM,39.2,19.4,45,30.21,10.0,ESE,3.5,-,N/A,,Overcast,120,2014-03-04 23:55:00
7:15 PM,39.2,21.2,49,30.22,10.0,Calm,Calm,-,N/A,,Overcast,0,2014-03-05 00:15:00
7:35 PM,39.2,21.2,49,30.20,10.0,Calm,Calm,-,N/A,,Overcast,0,2014-03-05 00:35:00
7:55 PM,37.4,21.2,52,30.19,10.0,ENE,3.5,-,N/A,,Overcast,70,2014-03-05 00:55:00
8:15 PM,37.4,21.2,52,30.19,10.0,Calm,Calm,-,N/A,,Overcast,0,2014-03-05 01:15:00
8:35 PM,37.4,21.2,52,30.20,10.0,Calm,Calm,-,N/A,,Overcast,0,2014-03-05 01:35:00
8:55 PM,39.2,21.2,49,30.22,10.0,Calm,Calm,-,N/A,,Overcast,0,2014-03-05 01:55:00
9:15 PM,37.4,21.2,52,30.21,10.0,Calm,Calm,-,N/A,,Overcast,0,2014-03-05 02:15:00
9:35 PM,37.4,21.2,52,30.20,10.0,Calm,Calm,-,N/A,,Overcast,0,2014-03-05 02:35:00
9:55 PM,37.4,23.0,56,30.21,10.0,Calm,Calm,-,N/A,,Overcast,0,2014-03-05 02:55:00
10:15 PM,37.4,23.0,56,30.21,10.0,Calm,Calm,-,N/A,,Overcast,0,2014-03-05 03:15:00
10:35 PM,37.4,24.8,60,30.21,10.0,Calm,Calm,-,N/A,,Mostly Cloudy,0,2014-03-05 03:35:00
10:55 PM,37.4,26.6,65,30.19,10.0,NE,3.5,-,N/A,,Scattered Clouds,40,2014-03-05 03:55:00
11:15 PM,37.4,26.6,65,30.19,10.0,Calm,Calm,-,N/A,,Clear,0,2014-03-05 04:15:00
11:35 PM,37.4,24.8,60,30.19,10.0,Calm,Calm,-,N/A,,Clear,0,2014-03-05 04:35:00
11:55 PM,37.4,26.6,65,30.18,10.0,NNE,4.6,-,N/A,,Clear,30,2014-03-05 04:55:00